530  
NZUS99 KDVN 231810  
HRRRRR  
HOURLY WEATHER ROUNDUP  
NATIONAL WEATHER SERVICE QUAD CITIES IA IL  
1200 PM CST SAT JAN 23 2021  
 
NOTE: "FAIR" INDICATES FEW OR NO CLOUDS BELOW 12,000 FEET WITH  
NO SIGNIFICANT WEATHER AND/OR OBSTRUCTIONS TO VISIBILITY.  
------------------------------------------------------------------  
 
CITY SKY/WX TMP DP RH WIND PRES REMARKS  
BURLINGTON MOSUNNY 25 7 46 SE7 30.31F WCI 17  
6HR MIN TEMP: 11; 6HR MAX TEMP: 25;  
 
CEDAR RAPIDS CLOUDY 16 2 54 S12 30.29F WCI 3  
6HR MIN TEMP: -3; 6HR MAX TEMP: 16;  
 
DAVENPORT MOSUNNY 20 3 48 SE12 30.34F WCI 8  
6HR MIN TEMP: 2; 6HR MAX TEMP: 20;  
 
DUBUQUE PTSUNNY 12 2 64 S8 30.30F WCI 0  
6HR MIN TEMP: -7; 6HR MAX TEMP: 12;  
 
IOWA CITY CLOUDY 15 5 64 SE8 30.34F WCI 4  
6HR MIN TEMP: 0; 6HR MAX TEMP: 15;  
 
MOLINE CLOUDY 20 5 52 S10 30.34F WCI 9  
6HR MIN TEMP: 3; 6HR MAX TEMP: 20;  
 
------------------------------------------------------------------  
THE STATIONS BELOW ARE NOT NWS STATIONS AND ARE NOT SUBJECT TO NWS  
QUALITY CONTROL. SOME STATIONS DO NOT REPORT WEATHER SUCH AS FOG.  
* - STATIONS THAT REPORT TMP AND DP IN WHOLE DEGREES CELSIUS, WHICH  
ARE THEN CONVERTED TO FAHRENHEIT.  
------------------------------------------------------------------  
 
CITY SKY/WX TMP DP RH WIND PRES REMARKS  
CLINTON MOSUNNY 17 6 62 SE8 30.35F WCI 7  
6HR MIN TEMP: -4; 6HR MAX TEMP: 17;  
 
FAIRFIELD * SUNNY 19 7 58 SE8 30.29F WCI 9  
FORT MADISON * MOSUNNY 25 12 58 S9 30.31F WCI 15  
FREEPORT MOSUNNY 15 2 57 S8 30.36F WCI 4  
6HR MIN TEMP: -3; 6HR MAX TEMP: 15;  
 
INDEPENDENCE CLOUDY 15 5 65 SE6 30.28F WCI 6  
KEOKUK * MOSUNNY 27 10 50 SE10 30.30F WCI 17  
MACOMB MOSUNNY 27 13 55 SE12 30.35F WCI 16  
6HR MIN TEMP: 9; 6HR MAX TEMP: 27;  
 
MONTICELLO * MOSUNNY 14 3 62 SE7 30.32F WCI 4  
MT PLEASANT * PTSUNNY 28 12 50 CALM 30.30F  
MUSCATINE * PTSUNNY 19 9 63 SE7 30.35F WCI 10  
SAVANNA * MOSUNNY 18 3 53 CALM 30.36F  
STERLING/R.F. MOSUNNY 17 7 64 E6 30.36F WCI 9  
6HR MIN TEMP: 0; 6HR MAX TEMP: 18;  
 
VINTON MOSUNNY 18 3 52 SE10 30.29F WCI 6  
6HR MIN TEMP: -2; 6HR MAX TEMP: 18;  
 
WASHINGTON * PTSUNNY 19 9 63 SE9 30.29F WCI 9  
------------------------------------------------------------------  
 
 
CLICK HERE TO GO TO PREVIOUS BULLETINS.

The Nexlab IL Page
The Nexlab IA Page
The Nexlab MO Page Main Text Page